• In Hungary
  • List of Countries
  • For 7 days
  • Water Temperature
  • Satellite Maps
  • Weather Map
  • News
  • Weather Widgets
  • user-avatar
    Login

    Hourly Weather Nesebyr

    Today, 13 December, Wednesday

    Time Temperature Precipitation Wind Pressure Humidity
    00:00 +9°C° 0 mm 3 mps 762 mmHg 81%
    01:00 +9°C° 0 mm 3 mps 762 mmHg 82%
    02:00 +9°C° 0 mm 3 mps 762 mmHg 85%
    03:00 +9°C° 0 mm 3 mps 761 mmHg 85%
    04:00 +8°C° 0 mm 3 mps 761 mmHg 86%
    05:00 +8°C° 0 mm 2 mps 761 mmHg 86%
    06:00 +8°C° 0 mm 2 mps 761 mmHg 87%
    07:00 +8°C° 0 mm 2 mps 761 mmHg 87%
    08:00 +8°C° 0 mm 2 mps 761 mmHg 86%
    09:00 +10°C° 0 mm 2 mps 761 mmHg 81%
    10:00 +11°C° 0 mm 3 mps 761 mmHg 75%
    11:00 +13°C° 0 mm 3 mps 761 mmHg 70%
    12:00 +14°C° 0 mm 3 mps 761 mmHg 67%
    13:00 +16°C° 0 mm 3 mps 761 mmHg 65%
    14:00 +16°C° 0 mm 3 mps 760 mmHg 63%
    15:00 +14°C° 0 mm 3 mps 760 mmHg 68%
    16:00 +13°C° 0 mm 3 mps 760 mmHg 74%
    17:00 +13°C° 0 mm 2 mps 760 mmHg 79%
    18:00 +13°C° 0 mm 2 mps 760 mmHg 81%
    19:00 +12°C° 0 mm 2 mps 760 mmHg 82%
    20:00 +12°C° 0 mm 2 mps 760 mmHg 84%
    21:00 +12°C° 0 mm 2 mps 759 mmHg 85%
    22:00 +12°C° 0 mm 2 mps 759 mmHg 87%
    23:00 +11°C° 0 mm 3 mps 759 mmHg 88%

    Tomorrow, 14 December, Thursday

    Time Temperature Precipitation Wind Pressure Humidity
    00:00 +11°C° 0 mm 3 mps 758 mmHg 88%
    01:00 +11°C° 0 mm 3 mps 758 mmHg 89%
    02:00 +11°C° 0 mm 3 mps 758 mmHg 89%
    03:00 +11°C° 0 mm 3 mps 758 mmHg 89%
    04:00 +11°C° 0 mm 3 mps 757 mmHg 90%
    05:00 +11°C° 0 mm 3 mps 757 mmHg 90%
    06:00 +11°C° 0 mm 3 mps 757 mmHg 90%
    07:00 +11°C° 0 mm 3 mps 757 mmHg 91%
    08:00 +11°C° 0 mm 3 mps 757 mmHg 92%
    09:00 +12°C° 0 mm 3 mps 757 mmHg 87%
    10:00 +13°C° 0 mm 3 mps 757 mmHg 82%
    11:00 +14°C° 0 mm 3 mps 758 mmHg 77%
    12:00 +15°C° 0 mm 2 mps 757 mmHg 72%
    13:00 +16°C° 0 mm 2 mps 757 mmHg 67%
    14:00 +17°C° 0 mm 2 mps 757 mmHg 61%
    15:00 +16°C° 0 mm 1 mps 757 mmHg 66%
    16:00 +14°C° 0 mm 1 mps 757 mmHg 70%
    17:00 +12°C° 0 mm 0 mps 757 mmHg 74%
    18:00 +12°C° 0 mm 0 mps 757 mmHg 77%
    19:00 +12°C° 0 mm 1 mps 758 mmHg 79%
    20:00 +12°C° 0 mm 1 mps 758 mmHg 82%
    21:00 +12°C° 0 mm 1 mps 758 mmHg 84%
    22:00 +11°C° 0 mm 1 mps 758 mmHg 86%
    23:00 +11°C° 0 mm 1 mps 758 mmHg 88%

    Day after tomorrow, 15 December, Friday

    Time Temperature Precipitation Wind Pressure Humidity
    00:00 +11°C° 0 mm 1 mps 758 mmHg 88%
    01:00 +10°C° 0 mm 2 mps 758 mmHg 89%
    02:00 +9°C° 0 mm 2 mps 758 mmHg 89%
    03:00 +9°C° 0 mm 2 mps 758 mmHg 89%
    04:00 +9°C° 0 mm 2 mps 758 mmHg 89%
    05:00 +9°C° 0 mm 2 mps 758 mmHg 89%
    06:00 +9°C° 0 mm 2 mps 758 mmHg 89%
    07:00 +8°C° 0 mm 2 mps 759 mmHg 89%
    08:00 +8°C° 0 mm 2 mps 759 mmHg 89%
    09:00 +10°C° 0 mm 2 mps 759 mmHg 82%
    10:00 +13°C° 0 mm 2 mps 759 mmHg 75%
    11:00 +14°C° 0 mm 2 mps 759 mmHg 67%
    12:00 +14°C° 0 mm 3 mps 759 mmHg 65%
    13:00 +16°C° 0 mm 3 mps 758 mmHg 62%
    14:00 +17°C° 0 mm 4 mps 758 mmHg 60%
    15:00 +15°C° 0 mm 4 mps 758 mmHg 64%
    16:00 +14°C° 0 mm 4 mps 757 mmHg 68%
    17:00 +13°C° 0 mm 4 mps 757 mmHg 73%
    18:00 +13°C° 0 mm 5 mps 757 mmHg 75%
    19:00 +12°C° 0 mm 5 mps 757 mmHg 78%
    20:00 +11°C° 0 mm 6 mps 757 mmHg 81%
    21:00 +11°C° 0 mm 6 mps 757 mmHg 83%
    22:00 +11°C° 0 mm 6 mps 756 mmHg 85%
    23:00 +11°C° 0 mm 7 mps 756 mmHg 87%

    16 December, Saturday

    Time Temperature Precipitation Wind Pressure Humidity
    00:00 +12°C° 0 mm 7 mps 756 mmHg 88%
    01:00 +12°C° 0 mm 8 mps 756 mmHg 88%
    02:00 +12°C° 0 mm 8 mps 755 mmHg 88%
    03:00 +12°C° 0 mm 8 mps 755 mmHg 87%
    04:00 +12°C° 0 mm 8 mps 755 mmHg 87%
    05:00 +12°C° 0 mm 8 mps 755 mmHg 87%
    06:00 +12°C° 0 mm 8 mps 755 mmHg 87%
    07:00 +12°C° 0 mm 8 mps 755 mmHg 88%
    08:00 +12°C° 0 mm 8 mps 756 mmHg 88%
    09:00 +13°C° 0 mm 8 mps 756 mmHg 82%
    10:00 +15°C° 0 mm 8 mps 756 mmHg 77%
    11:00 +16°C° 0 mm 9 mps 756 mmHg 71%
    12:00 +16°C° 0 mm 9 mps 756 mmHg 67%
    13:00 +17°C° 0 mm 8 mps 755 mmHg 63%
    14:00 +17°C° 0 mm 8 mps 755 mmHg 59%
    15:00 +16°C° 0 mm 8 mps 755 mmHg 62%
    16:00 +16°C° 0 mm 7 mps 755 mmHg 66%
    17:00 +15°C° 0 mm 7 mps 755 mmHg 69%
    18:00 +15°C° 0 mm 7 mps 755 mmHg 72%
    19:00 +15°C° 0 mm 7 mps 755 mmHg 76%
    20:00 +15°C° 0 mm 7 mps 755 mmHg 79%
    21:00 +15°C° 0 mm 7 mps 755 mmHg 79%
    22:00 +15°C° 0 mm 7 mps 755 mmHg 79%
    23:00 +15°C° 0 mm 7 mps 755 mmHg 79%

    17 December, Sunday

    Time Temperature Precipitation Wind Pressure Humidity
    00:00 +14°C° 0.2 mm 7 mps 755 mmHg 78%
    01:00 +13°C° 0.2 mm 8 mps 755 mmHg 78%
    02:00 +13°C° 0.2 mm 8 mps 754 mmHg 77%
    03:00 +13°C° 0.1 mm 8 mps 754 mmHg 77%
    04:00 +13°C° 0.1 mm 8 mps 753 mmHg 78%
    05:00 +13°C° 0.1 mm 8 mps 752 mmHg 79%
    06:00 +15°C° 0.1 mm 9 mps 752 mmHg 79%
    07:00 +15°C° 0.1 mm 9 mps 752 mmHg 79%
    08:00 +15°C° 0.1 mm 9 mps 751 mmHg 78%
    09:00 +16°C° 0.4 mm 10 mps 751 mmHg 78%
    10:00 +16°C° 0.4 mm 10 mps 751 mmHg 77%
    11:00 +16°C° 0.4 mm 10 mps 751 mmHg 76%
    12:00 +15°C° 0.9 mm 9 mps 752 mmHg 74%
    13:00 +13°C° 0.9 mm 9 mps 752 mmHg 72%
    14:00 +12°C° 0.9 mm 8 mps 752 mmHg 70%
    15:00 +11°C° 0.1 mm 7 mps 753 mmHg 68%
    16:00 +10°C° 0.1 mm 6 mps 754 mmHg 67%
    17:00 +9°C° 0.1 mm 5 mps 755 mmHg 65%
    18:00 +9°C° 0 mm 5 mps 756 mmHg 65%
    19:00 +8°C° 0 mm 5 mps 757 mmHg 64%
    20:00 +8°C° 0 mm 4 mps 758 mmHg 63%
    21:00 +7°C° 0 mm 4 mps 759 mmHg 64%
    22:00 +7°C° 0 mm 4 mps 759 mmHg 64%
    23:00 +6°C° 0 mm 4 mps 760 mmHg 65%

    18 December, Monday

    Time Temperature Precipitation Wind Pressure Humidity
    00:00 +6°C° 0 mm 5 mps 761 mmHg 64%
    01:00 +6°C° 0 mm 5 mps 761 mmHg 63%
    02:00 +6°C° 0 mm 5 mps 762 mmHg 62%
    03:00 +5°C° 0 mm 5 mps 762 mmHg 62%
    04:00 +5°C° 0 mm 5 mps 762 mmHg 62%
    05:00 +3°C° 0 mm 5 mps 763 mmHg 62%
    06:00 +3°C° 0 mm 5 mps 763 mmHg 61%
    07:00 +3°C° 0 mm 5 mps 764 mmHg 60%
    08:00 +3°C° 0 mm 5 mps 764 mmHg 59%
    09:00 +3°C° 0 mm 5 mps 765 mmHg 58%
    10:00 +3°C° 0 mm 5 mps 765 mmHg 56%
    11:00 +5°C° 0 mm 5 mps 765 mmHg 54%
    12:00 +5°C° 0 mm 5 mps 765 mmHg 53%
    13:00 +6°C° 0 mm 5 mps 765 mmHg 52%
    14:00 +6°C° 0 mm 5 mps 765 mmHg 50%
    15:00 +5°C° 0 mm 5 mps 765 mmHg 54%
    16:00 +5°C° 0 mm 4 mps 765 mmHg 57%
    17:00 +4°C° 0 mm 4 mps 765 mmHg 60%
    18:00 +4°C° 0 mm 4 mps 765 mmHg 63%
    19:00 +3°C° 0 mm 4 mps 766 mmHg 65%
    20:00 +3°C° 0 mm 4 mps 766 mmHg 68%
    21:00 +3°C° 0.1 mm 4 mps 766 mmHg 70%
    22:00 +1°C° 0.1 mm 4 mps 766 mmHg 72%
    23:00 +1°C° 0.1 mm 4 mps 766 mmHg 74%
    Show more